(7) Iris
ephemeris date magn radius delta ra dec elong phase
Today16 Sep 202510.42.070 AU2.697 AU08h49m+15°25'42.5°19.2°
Opposition27 Feb 20268.92.491 AU1.508 AU10h28m-00°05'171.0°3.6°
(7) Iris - 2025-09-16
astro.vanbuitenen.nl


 
-1 year
-1 month
-1 day
Now
+1 day
+1 month
+1 year

The interactive orbit chart above shows the body's path through the solar system and its position at the given date. Green and blue lines are shown perpendicular to the ecliptic plane: Green if the path is above the ecliptic plane, blue if it is below. (Left-click and drag to rotate the view; Right-click and drag to move the view; Use scroll wheel to zoom in our out.)

The orbital elements of Iris are:

            e (Eccentricity)                : 0.2299781
            a (Semimajor axis)              : 2.3863214
            i (Inclination)                 : 5.51956
            Ω (Longitude of ascending node) : 259.49837
            ω (Argument of perihelion)      : 145.52919
            M (Mean anomaly)                : 8.23526
            Epoch                           : 2025 May 05

            L (Longitude of perihelion)     : 225.15170
            B (Latitude of perihelion)      : 3.12071
            P (Orbital period in years)     : 3.69            
        

The light curve chart below shows the estimated development of the minor planet's magnitude.


The all-sky chart below shows the path of the minor planet over the same period as the light curve. The current position is marked yellow.





The following chart shows the path of the minor planet in the next few days. The field of view is optimized for (~10x50) binoculars and finderscopes. A more printer-friendly version of the same chart can be found below.




Ephemerides:
Date       Time       RA (2000)    DEC (2000)    delta   radius  elong  phase   PA    magn
2025-09-16 00:00 UT   08 49 33.3   +15 25 36     2.697    2.070   42.5   19.2   283   10.4 
2025-09-16 16:46 UT   08 50 55.2   +15 18 50     2.693    2.072   42.8   19.3   283   10.4 
2025-09-17 00:00 UT   08 51 30.4   +15 15 54     2.691    2.073   43.0   19.3   283   10.4 
2025-09-18 00:00 UT   08 53 27.0   +15 06 09     2.686    2.075   43.5   19.5   283   10.4 
2025-09-19 00:00 UT   08 55 22.9   +14 56 20     2.680    2.078   44.0   19.6   284   10.4 
2025-09-20 00:00 UT   08 57 18.2   +14 46 29     2.674    2.080   44.4   19.8   284   10.4 
2025-09-21 00:00 UT   08 59 12.9   +14 36 36     2.669    2.082   44.9   19.9   284   10.4 
2025-09-22 00:00 UT   09 01 06.9   +14 26 39     2.663    2.085   45.4   20.1   284   10.4 
2025-09-23 00:00 UT   09 03 00.3   +14 16 40     2.657    2.087   45.9   20.2   284   10.4 
2025-09-24 00:00 UT   09 04 53.1   +14 06 39     2.651    2.090   46.4   20.3   284   10.4 
2025-09-25 00:00 UT   09 06 45.2   +13 56 35     2.645    2.092   46.9   20.5   284   10.4 
2025-09-26 00:00 UT   09 08 36.7   +13 46 30     2.639    2.095   47.4   20.6   285   10.4 
2025-09-27 00:00 UT   09 10 27.5   +13 36 22     2.633    2.097   47.9   20.8   285   10.4 
2025-09-28 00:00 UT   09 12 17.7   +13 26 12     2.626    2.100   48.4   20.9   285   10.4 
2025-09-29 00:00 UT   09 14 07.2   +13 15 60     2.620    2.102   48.9   21.1   285   10.4 
2025-09-30 00:00 UT   09 15 56.0   +13 05 46     2.614    2.105   49.4   21.2   285   10.4 
2025-10-01 00:00 UT   09 17 44.2   +12 55 31     2.607    2.107   49.9   21.3   285   10.4 
2025-10-02 00:00 UT   09 19 31.7   +12 45 14     2.601    2.110   50.5   21.5   285   10.4 
2025-10-03 00:00 UT   09 21 18.6   +12 34 56     2.594    2.112   51.0   21.6   286   10.4 


    Terminology:
            
    delta:  distance between minor planet and earth in AU
    radius: distance between minor planet and sun in AU
    magn:   magnitude (brightness) estimate    
    ra:     right ascension in hours (24h = 360deg)
    dec:    declination in degrees
    elong:  elongation in degrees (angle sun-earth-minor planet)    
    phase:  phase angle in degrees (angle sun-minor planet-earth)        
    AU:     Astronomical Unit (mean distance between earth and sun: 149597870.7 km
    

Orbital elements provided by the MPC (Minor Planet Center).
Calculations by a modified version of AAPlus, a C# implementation of the AA+ project by PJ Naughter from the algorithms presented in the book "Astronomical Algorithms" by Jean Meeus.
NGC2000 dso catalog and star labels from VizieR as provided by the Strasbourg astronomical Data Center.
Tycho2 catalog from the ESO archive.